Location: Bakhuizen
(52.8696°N, 5.4575°E)
Time: 01:21:35
(UTC+00:00)

Cosmos 1833 - Pass Details

Date: 01 October 2021
Orbit: 834 x 864 km, 70.9° (Epoch: 26 October)

Event Time Altitude Azimuth Distance (km) Brightness Sun altitude
Rises 19:52:16 0° 315° (NW) 3,396 8.6 -23.8°
Reaches altitude 10° 19:56:25 10° 286° (WNW) 2,453 7.6 -24.4°
Maximum altitude 19:58:22 12° 265° (W) 2,317 7.2 -24.7°
Drops below altitude 10° 20:00:19 10° 244° (WSW) 2,446 7.0 -24.9°
Sets 20:04:28 0° 215° (SW) 3,375 7.4 -25.4°
